Terminal Aerodrome Forecast
Issued by NWS

Home | Current Version | Previous Version | Text Only | Print | Product List | Glossary On
Versions: 1 2 3 4 5 6 7 8 9 10 11 12
000
FTUS42 TJSJ 180500
TAFIST
TAF
TIST 180534Z 1806/1906 08005KT P6SM FEW025
     FM181330 14011KT P6SM VCTS SCT025CB BKN040
     FM182300 09008KT P6SM VCSH SCT025=

USA.gov is the U.S. government's official web portal to all federal, state and local government web resources and services.